Location: Amsterdam
(30.7274°N, 84.4357°W)
Time: 22:28:46
(UTC+00:00)

NOAA 15 - Visible Passes

Search period start: 12 March 2026 00:00
Search period end: 22 March 2026 00:00
Orbit: 795 x 808 km, 98.5° (Epoch: 12 March)

Date Brightness Start Highest point End Pass type
(mag) Time Alt. Az. Time Alt. Az. Time Alt. Az.
12 Mar 5.0 00:21:07 10° S 00:26:21 70° WSW 00:31:38 10° NNW visible
13 Mar 7.8 01:38:30 10° WSW 01:40:11 11° W 01:41:52 10° WNW visible
14 Mar 7.1 01:09:43 10° SSW 01:13:45 22° W 01:17:51 10° NW visible
15 Mar 6.0 00:42:28 10° S 00:47:25 42° W 00:52:25 10° NNW visible
16 Mar 4.8 00:15:54 10° S 00:21:10 79° W 00:26:28 10° NNW visible
17 Mar 7.6 01:32:31 10° WSW 01:34:57 13° W 01:37:24 10° WNW visible
18 Mar 6.9 01:04:15 10° SSW 01:08:32 25° W 01:12:52 10° NW visible
19 Mar 5.7 00:37:10 10° S 00:42:13 47° W 00:47:19 10° NNW visible
20 Mar 4.7 00:10:42 10° SSE 00:15:58 89° WSW 00:21:18 10° NNW visible
21 Mar 7.5 01:26:45 10° SW 01:29:43 15° W 01:32:42 10° WNW visible
